DAL767 KJFK-KLAX

Flight info

Callsign DAL767
Flight time 5h 34m
Altitude 36000
Route COATE Q436 RAAKK Q438 RUBYY DABJU J36 BAE MCW ONL J114 DVV ZAKRY Q88 HAKMN ANJLL4
Aircraft MD11/H-SDE1E2E3FGHIJ2J3J4J5M1RWXY/LB1D1

Departure

Time 2026-05-04 14:51
Airport John F. Kennedy International Airport (KJFK)

Arrival

Time 2026-05-04 20:25
Airport Los Angeles International Airport (KLAX)
Time Latitude Longitude Altitude Speed Heading
2026-05-04 14:27 40.64016 -73.78069 30 ft 0 kts 247°
2026-05-04 14:37 40.64017 -73.78066 29 ft 2 kts 247°
2026-05-04 14:37 40.64028 -73.78035 30 ft 4 kts 240°
2026-05-04 14:37 40.64039 -73.78008 29 ft 4 kts 236°
2026-05-04 14:38 40.64050 -73.77990 30 ft 4 kts 185°
2026-05-04 14:38 40.64072 -73.77995 30 ft 4 kts 152°
2026-05-04 14:38 40.64083 -73.78002 28 ft 1 kts 150°
2026-05-04 14:38 40.64083 -73.78003 28 ft 0 kts 150°
2026-05-04 14:41 40.64061 -73.77986 30 ft 8 kts 150°
2026-05-04 14:41 40.63918 -73.77938 30 ft 12 kts 171°
2026-05-04 14:42 40.63759 -73.77912 29 ft 17 kts 174°
2026-05-04 14:42 40.63641 -73.77892 30 ft 16 kts 170°
2026-05-04 14:42 40.63603 -73.77878 30 ft 0 kts 158°
2026-05-04 14:44 40.63602 -73.77876 29 ft 2 kts 154°
2026-05-04 14:44 40.63569 -73.77833 29 ft 7 kts 110°
2026-05-04 14:44 40.63609 -73.77747 27 ft 19 kts 34°
2026-05-04 14:44 40.63728 -73.77654 28 ft 19 kts 31°
2026-05-04 14:45 40.63841 -73.77564 26 ft 19 kts 31°
2026-05-04 14:45 40.63947 -73.77482 29 ft 19 kts 31°
2026-05-04 14:45 40.64086 -73.77374 30 ft 28 kts 30°
2026-05-04 14:45 40.64260 -73.77238 31 ft 28 kts 31°
2026-05-04 14:46 40.64424 -73.77115 30 ft 26 kts 20°
2026-05-04 14:46 40.64590 -73.77086 29 ft 22 kts 358°
2026-05-04 14:46 40.64710 -73.77165 28 ft 18 kts 309°
2026-05-04 14:46 40.64738 -73.77185 30 ft 2 kts 359°
2026-05-04 14:47 40.64788 -73.77143 30 ft 14 kts 49°
2026-05-04 14:47 40.64829 -73.77073 27 ft 12 kts 56°
2026-05-04 14:47 40.64892 -73.76954 27 ft 17 kts 58°
2026-05-04 14:47 40.64908 -73.76844 29 ft 10 kts 103°
2026-05-04 14:48 40.64868 -73.76735 28 ft 9 kts 107°
2026-05-04 14:48 40.64889 -73.76688 29 ft 9 kts 35°
2026-05-04 14:48 40.64965 -73.76631 29 ft 14 kts 30°
2026-05-04 14:48 40.65048 -73.76568 28 ft 13 kts 31°
2026-05-04 14:49 40.65092 -73.76517 29 ft 5 kts 63°
2026-05-04 14:49 40.65095 -73.76471 29 ft 6 kts 97°
2026-05-04 14:49 40.65058 -73.76388 30 ft 12 kts 143°
2026-05-04 14:49 40.64987 -73.76384 30 ft 10 kts 198°
2026-05-04 14:50 40.64929 -73.76428 29 ft 17 kts 209°
2026-05-04 14:50 40.64575 -73.76705 27 ft 100 kts 211°
2026-05-04 14:50 40.63775 -73.77331 29 ft 165 kts 211°
2026-05-04 14:50 40.62726 -73.78154 424 ft 177 kts 211°
2026-05-04 14:51 40.61673 -73.78938 1305 ft 173 kts 210°
2026-05-04 14:51 40.60613 -73.79664 2204 ft 176 kts 208°
2026-05-04 14:51 40.59546 -73.80568 2817 ft 186 kts 218°
2026-05-04 14:51 40.58464 -73.81555 3602 ft 192 kts 217°
2026-05-04 14:52 40.57699 -73.82208 4040 ft 203 kts 216°
2026-05-04 14:52 40.56485 -73.83195 4854 ft 200 kts 213°
2026-05-04 14:52 40.55253 -73.83985 5910 ft 194 kts 205°
2026-05-04 14:52 40.54069 -73.84796 6611 ft 194 kts 229°
2026-05-04 14:53 40.53359 -73.86324 7036 ft 205 kts 241°
2026-05-04 14:53 40.52339 -73.87747 7191 ft 226 kts 216°
2026-05-04 14:53 40.50938 -73.88794 7471 ft 231 kts 215°
2026-05-04 14:53 40.49865 -73.90202 7984 ft 220 kts 243°
2026-05-04 14:54 40.49520 -73.92136 8453 ft 225 kts 271°
2026-05-04 14:54 40.50001 -73.94197 8592 ft 252 kts 299°
2026-05-04 14:54 40.51317 -73.95851 8947 ft 273 kts 324°
2026-05-04 14:54 40.53041 -73.96991 9544 ft 280 kts 330°
2026-05-04 14:55 40.54832 -73.98051 10146 ft 285 kts 330°
2026-05-04 14:55 40.56683 -73.99261 10309 ft 307 kts 326°
2026-05-04 14:55 40.58541 -74.00751 10453 ft 327 kts 321°
2026-05-04 14:55 40.60446 -74.02561 10619 ft 345 kts 318°
2026-05-04 14:56 40.62329 -74.04574 11289 ft 348 kts 316°
2026-05-04 14:56 40.64149 -74.06658 11966 ft 351 kts 314°
2026-05-04 14:56 40.65959 -74.08827 12655 ft 353 kts 313°
2026-05-04 14:56 40.67761 -74.11046 13353 ft 354 kts 313°
2026-05-04 14:57 40.69543 -74.13275 14030 ft 356 kts 312°
2026-05-04 14:57 40.71323 -74.15522 14688 ft 358 kts 312°
2026-05-04 14:57 40.73130 -74.17812 15346 ft 361 kts 313°
2026-05-04 14:57 40.74949 -74.20121 16001 ft 362 kts 313°
2026-05-04 14:58 40.76773 -74.22443 16617 ft 365 kts 313°
2026-05-04 14:58 40.78607 -74.24779 17234 ft 367 kts 313°
2026-05-04 14:58 40.80426 -74.27101 17818 ft 370 kts 313°
2026-05-04 14:58 40.82281 -74.29469 18413 ft 371 kts 313°
2026-05-04 14:59 40.84145 -74.31851 18948 ft 374 kts 313°
2026-05-04 14:59 40.86027 -74.34258 19474 ft 377 kts 313°
2026-05-04 14:59 40.89809 -74.39100 20500 ft 382 kts 313°
2026-05-04 15:00 40.91693 -74.41517 20967 ft 386 kts 313°
2026-05-04 15:00 40.93627 -74.43999 21439 ft 389 kts 313°
2026-05-04 15:00 40.95576 -74.46503 21908 ft 391 kts 313°
2026-05-04 15:01 40.99493 -74.51540 22801 ft 397 kts 313°
2026-05-04 15:01 41.01488 -74.54109 23248 ft 399 kts 313°
2026-05-04 15:01 41.03495 -74.56694 23678 ft 402 kts 313°
2026-05-04 15:01 41.05511 -74.59293 24093 ft 405 kts 313°
2026-05-04 15:02 41.07519 -74.61886 24506 ft 407 kts 313°
2026-05-04 15:02 41.09555 -74.64518 24932 ft 409 kts 313°
2026-05-04 15:02 41.11597 -74.67176 25329 ft 412 kts 312°
2026-05-04 15:02 41.13608 -74.69890 25705 ft 412 kts 308°
2026-05-04 15:03 41.15308 -74.72897 26089 ft 412 kts 301°
2026-05-04 15:03 41.16806 -74.76153 26473 ft 413 kts 298°
2026-05-04 15:03 41.18222 -74.79500 26872 ft 415 kts 297°
2026-05-04 15:03 41.19604 -74.82827 27235 ft 417 kts 297°
2026-05-04 15:04 41.21013 -74.86205 27553 ft 420 kts 298°
2026-05-04 15:04 41.22445 -74.89594 27929 ft 422 kts 299°
2026-05-04 15:04 41.23894 -74.92999 28262 ft 423 kts 299°
2026-05-04 15:04 41.25356 -74.96408 28585 ft 425 kts 300°
2026-05-04 15:05 41.26827 -74.99832 28888 ft 427 kts 300°
2026-05-04 15:05 41.28290 -75.03236 29207 ft 428 kts 300°
2026-05-04 15:05 41.29775 -75.06695 29514 ft 430 kts 300°
2026-05-04 15:05 41.31254 -75.10142 29843 ft 431 kts 300°
2026-05-04 15:06 41.32744 -75.13621 30141 ft 433 kts 300°
2026-05-04 15:06 41.34220 -75.17071 30416 ft 435 kts 300°
2026-05-04 15:06 41.35720 -75.20583 30684 ft 437 kts 300°
2026-05-04 15:07 41.38729 -75.27642 31307 ft 437 kts 299°
2026-05-04 15:07 41.40228 -75.31166 31614 ft 436 kts 299°
2026-05-04 15:07 41.41727 -75.34692 31915 ft 436 kts 299°
2026-05-04 15:07 41.43222 -75.38213 32192 ft 435 kts 299°
2026-05-04 15:08 41.44694 -75.41684 32460 ft 435 kts 299°
2026-05-04 15:08 41.46184 -75.45204 32745 ft 434 kts 299°
2026-05-04 15:08 41.47636 -75.48735 32990 ft 433 kts 296°
2026-05-04 15:08 41.48870 -75.52366 33247 ft 433 kts 293°
2026-05-04 15:09 41.49984 -75.56123 33490 ft 433 kts 291°
2026-05-04 15:09 41.51026 -75.59843 33711 ft 432 kts 291°
2026-05-04 15:09 41.52069 -75.63615 33934 ft 432 kts 291°
2026-05-04 15:10 41.54173 -75.71141 34359 ft 432 kts 291°
2026-05-04 15:10 41.55228 -75.74867 34550 ft 432 kts 291°
2026-05-04 15:10 41.57362 -75.82373 34886 ft 433 kts 291°
2026-05-04 15:11 41.58415 -75.86088 35057 ft 433 kts 291°
2026-05-04 15:11 41.59480 -75.89852 35221 ft 433 kts 291°
2026-05-04 15:11 41.60548 -75.93624 35381 ft 433 kts 291°
2026-05-04 15:11 41.61614 -75.97389 35537 ft 433 kts 291°
2026-05-04 15:12 41.62682 -76.01163 35692 ft 434 kts 290°
2026-05-04 15:12 41.63744 -76.04924 35866 ft 433 kts 291°
2026-05-04 15:12 41.64815 -76.08713 35915 ft 435 kts 291°
2026-05-04 15:13 41.66955 -76.16299 35925 ft 440 kts 290°
2026-05-04 15:13 41.69107 -76.23964 35923 ft 443 kts 290°
2026-05-04 15:14 41.71273 -76.31736 35917 ft 445 kts 290°
2026-05-04 15:14 41.73430 -76.39469 35916 ft 446 kts 290°
2026-05-04 15:15 41.75593 -76.47241 35909 ft 444 kts 290°
2026-05-04 15:15 41.77746 -76.55005 35906 ft 444 kts 290°
2026-05-04 15:16 41.80956 -76.66642 35897 ft 443 kts 290°
2026-05-04 15:17 41.84145 -76.78234 35897 ft 442 kts 290°
2026-05-04 15:17 41.87329 -76.89820 35889 ft 442 kts 290°
2026-05-04 15:18 41.89440 -76.97590 35888 ft 442 kts 290°
2026-05-04 15:19 41.92570 -77.09198 35887 ft 441 kts 290°
2026-05-04 15:19 41.95704 -77.20801 35887 ft 440 kts 290°
2026-05-04 15:20 41.97790 -77.28550 35890 ft 440 kts 290°
2026-05-04 15:20 41.99853 -77.36256 35889 ft 440 kts 290°
2026-05-04 15:21 42.01933 -77.44012 35889 ft 438 kts 290°
2026-05-04 15:22 42.05056 -77.55517 35888 ft 438 kts 291°
2026-05-04 15:22 42.08188 -77.67033 35888 ft 438 kts 291°
2026-05-04 15:23 42.10275 -77.74755 35879 ft 438 kts 291°
2026-05-04 15:23 42.12344 -77.82438 35880 ft 438 kts 291°
2026-05-04 15:24 42.16478 -77.97839 35879 ft 437 kts 290°
2026-05-04 15:25 42.18546 -78.05581 35880 ft 438 kts 290°
2026-05-04 15:26 42.21619 -78.17137 35880 ft 438 kts 290°
2026-05-04 15:26 42.24672 -78.28776 35865 ft 438 kts 289°
2026-05-04 15:27 42.27555 -78.40455 35880 ft 437 kts 289°
2026-05-04 15:28 42.30429 -78.52104 35875 ft 437 kts 289°
2026-05-04 15:29 42.33301 -78.63742 35871 ft 435 kts 289°
2026-05-04 15:30 42.39951 -78.90926 35848 ft 435 kts 289°
2026-05-04 15:31 42.42792 -79.02593 35844 ft 435 kts 289°
2026-05-04 15:32 42.47519 -79.21945 35832 ft 434 kts 289°
2026-05-04 15:34 42.52234 -79.41390 35832 ft 434 kts 289°
2026-05-04 15:34 42.55029 -79.52999 35829 ft 433 kts 289°
2026-05-04 15:35 42.57817 -79.64687 35822 ft 433 kts 289°
2026-05-04 15:36 42.60554 -79.76338 35813 ft 433 kts 288°
2026-05-04 15:36 42.61596 -79.84378 35814 ft 437 kts 277°
2026-05-04 15:37 42.61915 -79.92639 35813 ft 438 kts 275°
2026-05-04 15:37 42.62190 -80.00911 35805 ft 438 kts 276°
2026-05-04 15:38 42.62520 -80.09150 35804 ft 437 kts 276°
2026-05-04 15:38 42.62872 -80.17404 35807 ft 437 kts 276°
2026-05-04 15:39 42.63218 -80.25616 35804 ft 437 kts 276°
2026-05-04 15:40 42.63731 -80.37967 35804 ft 437 kts 276°
2026-05-04 15:40 42.64062 -80.46163 35805 ft 436 kts 276°
2026-05-04 15:41 42.64363 -80.54434 35800 ft 437 kts 276°
2026-05-04 15:41 42.64635 -80.62637 35795 ft 437 kts 275°
2026-05-04 15:42 42.64912 -80.70894 35795 ft 436 kts 276°
2026-05-04 15:42 42.65187 -80.79094 35786 ft 436 kts 276°
2026-05-04 15:43 42.65462 -80.87337 35790 ft 436 kts 275°
2026-05-04 15:43 42.65728 -80.95535 35776 ft 436 kts 275°
2026-05-04 15:44 42.65990 -81.03782 35771 ft 437 kts 275°
2026-05-04 15:44 42.66246 -81.12052 35778 ft 437 kts 275°
2026-05-04 15:45 42.66495 -81.20262 35770 ft 437 kts 275°
2026-05-04 15:45 42.66903 -81.28450 35763 ft 435 kts 279°
2026-05-04 15:46 42.67790 -81.36593 35768 ft 434 kts 282°
2026-05-04 15:46 42.68605 -81.43335 35768 ft 434 kts 282°
2026-05-04 15:47 42.69561 -81.51420 35767 ft 435 kts 281°
2026-05-04 15:47 42.70497 -81.59556 35768 ft 435 kts 281°
2026-05-04 15:48 42.71423 -81.67698 35757 ft 435 kts 281°
2026-05-04 15:48 42.72789 -81.79824 35755 ft 434 kts 281°
2026-05-04 15:49 42.73700 -81.87960 35756 ft 435 kts 281°
2026-05-04 15:49 42.74601 -81.96063 35752 ft 434 kts 281°
2026-05-04 15:50 42.75500 -82.04213 35747 ft 434 kts 281°
2026-05-04 15:50 42.76385 -82.12290 35746 ft 434 kts 281°
2026-05-04 15:51 42.77272 -82.20437 35739 ft 434 kts 281°
2026-05-04 15:51 42.78148 -82.28547 35733 ft 434 kts 281°
2026-05-04 15:52 42.79023 -82.36698 35730 ft 434 kts 280°
2026-05-04 15:52 42.79853 -82.44809 35729 ft 434 kts 280°
2026-05-04 15:53 42.80694 -82.52967 35729 ft 433 kts 281°
2026-05-04 15:53 42.81687 -82.61029 35728 ft 432 kts 282°
2026-05-04 15:54 42.82787 -82.69046 35730 ft 432 kts 282°
2026-05-04 15:54 42.83897 -82.77119 35720 ft 432 kts 282°
2026-05-04 15:55 42.84987 -82.85166 35725 ft 432 kts 282°
2026-05-04 15:55 42.86066 -82.93190 35719 ft 432 kts 282°
2026-05-04 15:56 42.87140 -83.01243 35719 ft 432 kts 282°
2026-05-04 15:56 42.88212 -83.09317 35718 ft 432 kts 282°
2026-05-04 15:57 42.89273 -83.17340 35719 ft 432 kts 282°
2026-05-04 15:57 42.90331 -83.25409 35729 ft 432 kts 282°
2026-05-04 15:58 42.91318 -83.33508 35728 ft 433 kts 279°
2026-05-04 15:58 42.92051 -83.41637 35728 ft 434 kts 278°
2026-05-04 15:59 42.92747 -83.49839 35729 ft 433 kts 278°
2026-05-04 15:59 42.93454 -83.58016 35731 ft 433 kts 278°
2026-05-04 16:00 42.94160 -83.66150 35729 ft 433 kts 278°
2026-05-04 16:00 42.94867 -83.74344 35731 ft 433 kts 278°
2026-05-04 16:01 42.95566 -83.82482 35729 ft 434 kts 278°
2026-05-04 16:01 42.96264 -83.90679 35726 ft 433 kts 278°
2026-05-04 16:02 42.96952 -83.98829 35715 ft 433 kts 278°
2026-05-04 16:03 42.97971 -84.11067 35703 ft 432 kts 278°
2026-05-04 16:03 42.98647 -84.19263 35695 ft 432 kts 278°
2026-05-04 16:04 42.99314 -84.27409 35693 ft 433 kts 278°
2026-05-04 16:04 43.00302 -84.39638 35692 ft 433 kts 278°
2026-05-04 16:05 43.00937 -84.47838 35692 ft 433 kts 277°
2026-05-04 16:06 43.01910 -84.60062 35692 ft 432 kts 279°
2026-05-04 16:07 43.03735 -84.76269 35682 ft 431 kts 280°
2026-05-04 16:08 43.05577 -84.92486 35683 ft 432 kts 280°
2026-05-04 16:09 43.07829 -85.12768 35683 ft 432 kts 279°
2026-05-04 16:10 43.09604 -85.28984 35674 ft 431 kts 279°
2026-05-04 16:11 43.11359 -85.45239 35674 ft 431 kts 279°
2026-05-04 16:12 43.13945 -85.69639 35663 ft 431 kts 279°
2026-05-04 16:13 43.15579 -85.85860 35665 ft 431 kts 279°
2026-05-04 16:14 43.17243 -86.02117 35663 ft 430 kts 278°
2026-05-04 16:16 43.19296 -86.22406 35673 ft 430 kts 278°
2026-05-04 16:17 43.19369 -86.42871 35673 ft 432 kts 268°
2026-05-04 16:18 43.18760 -86.59257 35665 ft 432 kts 269°
2026-05-04 16:19 43.18051 -86.79816 35655 ft 431 kts 269°
2026-05-04 16:20 43.17304 -87.00317 35637 ft 431 kts 269°
2026-05-04 16:22 43.16521 -87.20834 35642 ft 432 kts 269°
2026-05-04 16:23 43.15516 -87.45366 35626 ft 430 kts 268°
2026-05-04 16:25 43.14433 -87.69861 35628 ft 431 kts 268°
2026-05-04 16:26 43.13157 -87.98464 35625 ft 429 kts 268°
2026-05-04 16:28 43.12203 -88.18843 35623 ft 429 kts 268°
2026-05-04 16:29 43.11964 -88.47369 35625 ft 428 kts 272°
2026-05-04 16:31 43.12304 -88.67732 35616 ft 428 kts 272°
2026-05-04 16:32 43.12637 -88.92228 35609 ft 429 kts 272°
2026-05-04 16:33 43.12834 -89.08579 35605 ft 430 kts 272°
2026-05-04 16:34 43.12966 -89.20819 35599 ft 430 kts 271°
2026-05-04 16:35 43.13175 -89.45299 35599 ft 430 kts 271°
2026-05-04 16:36 43.13216 -89.56204 35599 ft 429 kts 271°
2026-05-04 16:37 43.13296 -89.69805 35601 ft 429 kts 271°
2026-05-04 16:38 43.13374 -89.84782 35590 ft 429 kts 271°
2026-05-04 16:39 43.13451 -90.05151 35583 ft 429 kts 271°
2026-05-04 16:40 43.13486 -90.21472 35580 ft 428 kts 271°
2026-05-04 16:41 43.13495 -90.41809 35588 ft 428 kts 271°
2026-05-04 16:43 43.13439 -90.62168 35590 ft 428 kts 270°
2026-05-04 16:43 43.13374 -90.74353 35589 ft 427 kts 270°
2026-05-04 16:45 43.13265 -90.98799 35590 ft 428 kts 270°
2026-05-04 16:46 43.13140 -91.19147 35588 ft 428 kts 270°
2026-05-04 16:47 43.13010 -91.35402 35590 ft 427 kts 270°
2026-05-04 16:48 43.12860 -91.51633 35585 ft 426 kts 270°
2026-05-04 16:49 43.12688 -91.67810 35581 ft 426 kts 270°
2026-05-04 16:50 43.12439 -91.83982 35580 ft 425 kts 270°
2026-05-04 16:51 43.12266 -91.96083 35589 ft 425 kts 270°
2026-05-04 16:52 43.12031 -92.12210 35595 ft 425 kts 270°
2026-05-04 16:53 43.11840 -92.24323 35598 ft 425 kts 270°
2026-05-04 16:54 43.11565 -92.40538 35608 ft 426 kts 269°
2026-05-04 16:55 43.11107 -92.64802 35609 ft 427 kts 269°
2026-05-04 16:56 43.10675 -92.85099 35609 ft 427 kts 269°
2026-05-04 16:57 43.10359 -92.97245 35616 ft 427 kts 269°
2026-05-04 16:58 43.09969 -93.13516 35624 ft 427 kts 269°
2026-05-04 17:00 43.08859 -93.37759 35626 ft 428 kts 264°
2026-05-04 17:01 43.06936 -93.57951 35633 ft 428 kts 264°
2026-05-04 17:02 43.05418 -93.74122 35643 ft 429 kts 264°
2026-05-04 17:03 43.04269 -93.86212 35643 ft 429 kts 264°
2026-05-04 17:03 43.03111 -93.98300 35657 ft 428 kts 264°
2026-05-04 17:04 43.01531 -94.14524 35662 ft 431 kts 264°
2026-05-04 17:05 42.99932 -94.30703 35664 ft 431 kts 264°
2026-05-04 17:06 42.98709 -94.42851 35664 ft 431 kts 263°
2026-05-04 17:07 42.97570 -94.53686 35664 ft 432 kts 263°
2026-05-04 17:07 42.96591 -94.63124 35673 ft 432 kts 264°
2026-05-04 17:08 42.95337 -94.75276 35674 ft 432 kts 263°
2026-05-04 17:09 42.94492 -94.83428 35690 ft 432 kts 263°
2026-05-04 17:09 42.93646 -94.91517 35693 ft 432 kts 263°
2026-05-04 17:10 42.91495 -95.11804 35702 ft 432 kts 263°
2026-05-04 17:11 42.90622 -95.19920 35702 ft 432 kts 263°
2026-05-04 17:12 42.89307 -95.32082 35701 ft 433 kts 263°
2026-05-04 17:13 42.87085 -95.52350 35701 ft 433 kts 263°
2026-05-04 17:14 42.85219 -95.68594 35701 ft 434 kts 263°
2026-05-04 17:15 42.83837 -95.80767 35702 ft 435 kts 263°
2026-05-04 17:16 42.81982 -95.97054 35718 ft 436 kts 263°
2026-05-04 17:17 42.80101 -96.13369 35722 ft 436 kts 263°
2026-05-04 17:18 42.78196 -96.29668 35720 ft 436 kts 262°
2026-05-04 17:19 42.76265 -96.45958 35726 ft 436 kts 262°
2026-05-04 17:20 42.74315 -96.62231 35736 ft 436 kts 262°
2026-05-04 17:20 42.72797 -96.74425 35746 ft 436 kts 262°
2026-05-04 17:21 42.70787 -96.90617 35755 ft 435 kts 262°
2026-05-04 17:22 42.69782 -96.98751 35754 ft 435 kts 262°
2026-05-04 17:23 42.67755 -97.14987 35758 ft 436 kts 262°
2026-05-04 17:24 42.66223 -97.27133 35765 ft 437 kts 262°
2026-05-04 17:25 42.64155 -97.43367 35776 ft 436 kts 262°
2026-05-04 17:26 42.62059 -97.59634 35781 ft 437 kts 261°
2026-05-04 17:27 42.59384 -97.79987 35788 ft 439 kts 261°
2026-05-04 17:28 42.57175 -97.96305 35786 ft 440 kts 261°
2026-05-04 17:29 42.53886 -98.20805 35811 ft 439 kts 261°
2026-05-04 17:31 42.51292 -98.39822 35822 ft 440 kts 261°
2026-05-04 17:32 42.48483 -98.60178 35830 ft 439 kts 261°
2026-05-04 17:33 42.45785 -98.71996 35834 ft 443 kts 244°
2026-05-04 17:33 42.44239 -98.75552 35829 ft 445 kts 241°
2026-05-04 17:34 42.37614 -98.89721 35831 ft 444 kts 242°
2026-05-04 17:35 42.29629 -99.07527 35834 ft 444 kts 242°
2026-05-04 17:36 42.26424 -99.14668 35826 ft 444 kts 242°
2026-05-04 17:36 42.23209 -99.21805 35823 ft 444 kts 242°
2026-05-04 17:37 42.19990 -99.28901 35822 ft 445 kts 242°
2026-05-04 17:37 42.16769 -99.36001 35823 ft 445 kts 242°
2026-05-04 17:38 42.13532 -99.43137 35823 ft 446 kts 242°
2026-05-04 17:38 42.10302 -99.50245 35823 ft 447 kts 242°
2026-05-04 17:39 42.05418 -99.60971 35822 ft 447 kts 242°
2026-05-04 17:39 42.02156 -99.68107 35838 ft 447 kts 242°
2026-05-04 17:40 41.98908 -99.75197 35840 ft 447 kts 242°
2026-05-04 17:40 41.95633 -99.82328 35838 ft 448 kts 242°
2026-05-04 17:41 41.92372 -99.89414 35826 ft 448 kts 241°
2026-05-04 17:41 41.89082 -99.96538 35831 ft 448 kts 241°
2026-05-04 17:42 41.85807 -100.03621 35838 ft 448 kts 241°
2026-05-04 17:42 41.82512 -100.10729 35840 ft 448 kts 241°
2026-05-04 17:43 41.79202 -100.17822 35845 ft 448 kts 241°
2026-05-04 17:43 41.75894 -100.24850 35851 ft 447 kts 241°
2026-05-04 17:44 41.72573 -100.31932 35854 ft 447 kts 241°
2026-05-04 17:44 41.69288 -100.38946 35855 ft 447 kts 241°
2026-05-04 17:45 41.65979 -100.45997 35852 ft 447 kts 241°
2026-05-04 17:45 41.62685 -100.53000 35840 ft 446 kts 241°
2026-05-04 17:46 41.59372 -100.60032 35841 ft 446 kts 241°
2026-05-04 17:46 41.56074 -100.67011 35837 ft 446 kts 241°
2026-05-04 17:47 41.52830 -100.74079 35830 ft 443 kts 246°
2026-05-04 17:47 41.50801 -100.81713 35825 ft 437 kts 258°
2026-05-04 17:48 41.49517 -100.89669 35823 ft 438 kts 260°
2026-05-04 17:48 41.48214 -100.97572 35822 ft 438 kts 259°
2026-05-04 17:49 41.46809 -101.05485 35823 ft 438 kts 258°
2026-05-04 17:49 41.45376 -101.13343 35822 ft 438 kts 258°
2026-05-04 17:50 41.43921 -101.21251 35824 ft 438 kts 258°
2026-05-04 17:50 41.42474 -101.29085 35824 ft 437 kts 258°
2026-05-04 17:51 41.41018 -101.36956 35822 ft 437 kts 258°
2026-05-04 17:51 41.39552 -101.44838 35823 ft 437 kts 258°
2026-05-04 17:52 41.38090 -101.52656 35821 ft 437 kts 258°
2026-05-04 17:52 41.36624 -101.60479 35824 ft 437 kts 258°
2026-05-04 17:53 41.35139 -101.68372 35817 ft 437 kts 258°
2026-05-04 17:53 41.33665 -101.76174 35821 ft 437 kts 258°
2026-05-04 17:54 41.32171 -101.84017 35823 ft 437 kts 257°
2026-05-04 17:54 41.30642 -101.91856 35822 ft 437 kts 257°
2026-05-04 17:55 41.29126 -101.99688 35829 ft 437 kts 258°
2026-05-04 17:55 41.27623 -102.07489 35833 ft 435 kts 258°
2026-05-04 17:56 41.26126 -102.15255 35833 ft 435 kts 258°
2026-05-04 17:56 41.24616 -102.23049 35830 ft 434 kts 258°
2026-05-04 17:57 41.23111 -102.30796 35832 ft 434 kts 258°
2026-05-04 17:57 41.21586 -102.38561 35832 ft 433 kts 257°
2026-05-04 17:58 41.20063 -102.46273 35843 ft 432 kts 258°
2026-05-04 17:58 41.18545 -102.53972 35843 ft 432 kts 258°
2026-05-04 17:59 41.17020 -102.61702 35839 ft 431 kts 258°
2026-05-04 18:00 41.14736 -102.73219 35833 ft 431 kts 258°
2026-05-04 18:00 41.13207 -102.80892 35830 ft 430 kts 258°
2026-05-04 18:01 41.11675 -102.88537 35834 ft 430 kts 258°
2026-05-04 18:01 41.09920 -102.96124 35832 ft 432 kts 250°
2026-05-04 18:02 41.06719 -103.02884 35834 ft 442 kts 234°
2026-05-04 18:02 41.04594 -103.05850 35830 ft 445 kts 230°
2026-05-04 18:02 41.00155 -103.11558 35832 ft 445 kts 230°
2026-05-04 18:03 40.95797 -103.17387 35833 ft 443 kts 232°
2026-05-04 18:03 40.91563 -103.23253 35837 ft 440 kts 233°
2026-05-04 18:04 40.87385 -103.29091 35832 ft 432 kts 233°
2026-05-04 18:05 40.81192 -103.37739 35833 ft 432 kts 234°
2026-05-04 18:05 40.77086 -103.43451 35834 ft 431 kts 234°
2026-05-04 18:06 40.70914 -103.52018 35942 ft 426 kts 234°
2026-05-04 18:06 40.68873 -103.54848 36070 ft 425 kts 234°
2026-05-04 18:06 40.66856 -103.57639 36184 ft 424 kts 234°
2026-05-04 18:07 40.64819 -103.60449 36320 ft 424 kts 234°
2026-05-04 18:07 40.62778 -103.63261 36436 ft 423 kts 234°
2026-05-04 18:07 40.60746 -103.66069 36565 ft 422 kts 234°
2026-05-04 18:07 40.58713 -103.68873 36691 ft 421 kts 234°
2026-05-04 18:08 40.56692 -103.71655 36811 ft 419 kts 234°
2026-05-04 18:08 40.54712 -103.74379 36936 ft 416 kts 234°
2026-05-04 18:08 40.52712 -103.77126 37062 ft 413 kts 234°
2026-05-04 18:08 40.50728 -103.79846 37179 ft 410 kts 234°
2026-05-04 18:09 40.46773 -103.85224 37433 ft 406 kts 234°
2026-05-04 18:09 40.42885 -103.90515 37683 ft 403 kts 234°
2026-05-04 18:10 40.40943 -103.93167 37803 ft 402 kts 234°
2026-05-04 18:10 40.39008 -103.95813 37839 ft 402 kts 235°
2026-05-04 18:10 40.35137 -104.01097 37850 ft 404 kts 234°
2026-05-04 18:11 40.31220 -104.06420 37852 ft 404 kts 234°
2026-05-04 18:11 40.27346 -104.11677 37851 ft 402 kts 234°
2026-05-04 18:12 40.23456 -104.16951 37857 ft 402 kts 234°
2026-05-04 18:12 40.19564 -104.22226 37861 ft 402 kts 234°
2026-05-04 18:13 40.15703 -104.27448 37860 ft 402 kts 234°
2026-05-04 18:14 40.09914 -104.35258 37863 ft 402 kts 234°
2026-05-04 18:14 40.06003 -104.40523 37871 ft 403 kts 234°
2026-05-04 18:15 39.98192 -104.51009 37879 ft 403 kts 234°
2026-05-04 18:16 39.94286 -104.56233 37880 ft 399 kts 234°
2026-05-04 18:16 39.90575 -104.61509 37887 ft 392 kts 241°
2026-05-04 18:17 39.88123 -104.67621 37889 ft 376 kts 257°
2026-05-04 18:17 39.87437 -104.70902 37891 ft 375 kts 259°
2026-05-04 18:18 39.85739 -104.80818 37886 ft 375 kts 260°
2026-05-04 18:18 39.84550 -104.87436 37866 ft 375 kts 259°
2026-05-04 18:19 39.82700 -104.97363 37892 ft 375 kts 259°
2026-05-04 18:19 39.81463 -105.03925 37904 ft 376 kts 259°
2026-05-04 18:20 39.80215 -105.10516 37906 ft 377 kts 259°
2026-05-04 18:20 39.79196 -105.15870 37905 ft 378 kts 259°
2026-05-04 18:21 39.77932 -105.22502 37908 ft 378 kts 259°
2026-05-04 18:21 39.76661 -105.29163 37941 ft 378 kts 259°
2026-05-04 18:22 39.75394 -105.35778 37986 ft 379 kts 259°
2026-05-04 18:22 39.74108 -105.42465 38024 ft 381 kts 259°
2026-05-04 18:23 39.72823 -105.49121 38070 ft 381 kts 259°
2026-05-04 18:23 39.71534 -105.55783 38111 ft 382 kts 258°
2026-05-04 18:24 39.70234 -105.62477 38160 ft 382 kts 259°
2026-05-04 18:24 39.68926 -105.69180 38193 ft 384 kts 258°
2026-05-04 18:25 39.67599 -105.75875 38188 ft 384 kts 258°
2026-05-04 18:25 39.66251 -105.82611 38182 ft 386 kts 258°
2026-05-04 18:26 39.64912 -105.89350 38201 ft 385 kts 258°
2026-05-04 18:26 39.63577 -105.96105 38192 ft 386 kts 258°
2026-05-04 18:27 39.62247 -106.02814 38195 ft 386 kts 258°
2026-05-04 18:27 39.60901 -106.09567 38199 ft 386 kts 258°
2026-05-04 18:28 39.59565 -106.16265 38205 ft 385 kts 258°
2026-05-04 18:28 39.58215 -106.23009 38209 ft 385 kts 258°
2026-05-04 18:29 39.56866 -106.29734 38195 ft 384 kts 258°
2026-05-04 18:29 39.55525 -106.36379 38192 ft 383 kts 258°
2026-05-04 18:30 39.53499 -106.46394 38144 ft 381 kts 257°
2026-05-04 18:31 39.52154 -106.53018 38111 ft 382 kts 258°
2026-05-04 18:31 39.50799 -106.59664 38070 ft 381 kts 258°
2026-05-04 18:32 39.49450 -106.66271 38067 ft 381 kts 258°
2026-05-04 18:32 39.48099 -106.72860 38059 ft 380 kts 258°
2026-05-04 18:33 39.46726 -106.79464 38055 ft 380 kts 257°
2026-05-04 18:33 39.45337 -106.86060 38058 ft 378 kts 257°
2026-05-04 18:34 39.43973 -106.92591 38075 ft 378 kts 258°
2026-05-04 18:34 39.42602 -106.99181 38067 ft 379 kts 258°
2026-05-04 18:35 39.41236 -107.05738 38077 ft 379 kts 257°
2026-05-04 18:35 39.39865 -107.12300 38095 ft 378 kts 257°
2026-05-04 18:36 39.38335 -107.18811 38115 ft 381 kts 252°
2026-05-04 18:36 39.36131 -107.25033 38145 ft 383 kts 249°
2026-05-04 18:37 39.33782 -107.31218 38140 ft 384 kts 248°
2026-05-04 18:37 39.31454 -107.37406 38155 ft 385 kts 249°
2026-05-04 18:38 39.29121 -107.43644 38148 ft 383 kts 249°
2026-05-04 18:38 39.26821 -107.49802 38125 ft 383 kts 249°
2026-05-04 18:39 39.24499 -107.56012 38109 ft 383 kts 249°
2026-05-04 18:39 39.22178 -107.62209 38089 ft 382 kts 249°
2026-05-04 18:40 39.19867 -107.68362 38067 ft 383 kts 249°
2026-05-04 18:40 39.17537 -107.74557 38054 ft 382 kts 249°
2026-05-04 18:41 39.15227 -107.80683 37997 ft 382 kts 249°
2026-05-04 18:41 39.12913 -107.86804 37990 ft 381 kts 249°
2026-05-04 18:42 39.10584 -107.92945 37993 ft 380 kts 249°
2026-05-04 18:42 39.08263 -107.99067 37962 ft 379 kts 249°
2026-05-04 18:43 39.05959 -108.05128 37962 ft 378 kts 248°
2026-05-04 18:43 39.03645 -108.11209 37961 ft 377 kts 248°
2026-05-04 18:44 39.01334 -108.17223 37957 ft 377 kts 248°
2026-05-04 18:44 38.98993 -108.23272 37957 ft 376 kts 248°
2026-05-04 18:45 38.96685 -108.29265 37952 ft 375 kts 248°
2026-05-04 18:45 38.94382 -108.35264 37948 ft 373 kts 248°
2026-05-04 18:46 38.92093 -108.41208 37952 ft 372 kts 248°
2026-05-04 18:46 38.89790 -108.47179 37951 ft 372 kts 248°
2026-05-04 18:47 38.87493 -108.53127 37952 ft 371 kts 248°
2026-05-04 18:47 38.85216 -108.59036 37980 ft 370 kts 248°
2026-05-04 18:48 38.82929 -108.64979 37991 ft 371 kts 248°
2026-05-04 18:48 38.80658 -108.70876 37999 ft 370 kts 248°
2026-05-04 18:49 38.78373 -108.76801 38001 ft 369 kts 248°
2026-05-04 18:49 38.76099 -108.82681 38016 ft 368 kts 248°
2026-05-04 18:50 38.73815 -108.88577 38037 ft 368 kts 248°
2026-05-04 18:50 38.71544 -108.94426 38036 ft 367 kts 248°
2026-05-04 18:51 38.69275 -109.00261 38051 ft 368 kts 248°
2026-05-04 18:51 38.66992 -109.06122 38051 ft 367 kts 248°
2026-05-04 18:52 38.64710 -109.11970 38033 ft 366 kts 248°
2026-05-04 18:52 38.62439 -109.17778 38024 ft 365 kts 248°
2026-05-04 18:53 38.60169 -109.23577 38025 ft 366 kts 247°
2026-05-04 18:53 38.57880 -109.29403 38007 ft 365 kts 247°
2026-05-04 18:54 38.55614 -109.35161 38000 ft 364 kts 247°
2026-05-04 18:54 38.53336 -109.40939 37993 ft 363 kts 247°
2026-05-04 18:55 38.51057 -109.46699 37992 ft 362 kts 247°
2026-05-04 18:55 38.47633 -109.55246 37979 ft 360 kts 247°
2026-05-04 18:56 38.45380 -109.60910 37962 ft 358 kts 247°
2026-05-04 18:56 38.43122 -109.66589 37978 ft 358 kts 247°
2026-05-04 18:57 38.40867 -109.72255 37981 ft 356 kts 247°
2026-05-04 18:57 38.38631 -109.77857 37975 ft 356 kts 247°
2026-05-04 18:58 38.36392 -109.83455 37964 ft 355 kts 247°
2026-05-04 18:58 38.34146 -109.89073 37975 ft 356 kts 247°
2026-05-04 18:59 38.31903 -109.94657 37967 ft 353 kts 247°
2026-05-04 18:59 38.29678 -110.00192 37955 ft 352 kts 247°
2026-05-04 19:00 38.27426 -110.05725 37978 ft 351 kts 246°
2026-05-04 19:00 38.25140 -110.11248 37967 ft 352 kts 246°
2026-05-04 19:01 38.22866 -110.16748 37969 ft 352 kts 246°
2026-05-04 19:01 38.20597 -110.22229 37958 ft 352 kts 246°
2026-05-04 19:02 38.18313 -110.27740 37943 ft 352 kts 246°
2026-05-04 19:02 38.16032 -110.33238 37950 ft 354 kts 246°
2026-05-04 19:03 38.13725 -110.38790 37952 ft 354 kts 246°
2026-05-04 19:03 38.11432 -110.44290 37945 ft 354 kts 246°
2026-05-04 19:04 38.09116 -110.49833 37929 ft 354 kts 246°
2026-05-04 19:04 38.06812 -110.55346 37934 ft 355 kts 246°
2026-05-04 19:05 38.04485 -110.60907 37934 ft 356 kts 246°
2026-05-04 19:05 38.02176 -110.66411 37937 ft 356 kts 245°
2026-05-04 19:06 37.99838 -110.71976 37932 ft 357 kts 245°
2026-05-04 19:06 37.97520 -110.77482 37934 ft 353 kts 245°
2026-05-04 19:07 37.95198 -110.82987 37933 ft 353 kts 245°
2026-05-04 19:07 37.92895 -110.88444 37931 ft 353 kts 245°
2026-05-04 19:08 37.90566 -110.93950 37942 ft 354 kts 245°
2026-05-04 19:08 37.88234 -110.99411 37946 ft 354 kts 245°
2026-05-04 19:09 37.85884 -111.04891 37948 ft 353 kts 245°
2026-05-04 19:09 37.83554 -111.10338 37954 ft 353 kts 245°
2026-05-04 19:10 37.81220 -111.15814 37953 ft 353 kts 245°
2026-05-04 19:10 37.78898 -111.21255 37950 ft 353 kts 244°
2026-05-04 19:11 37.76562 -111.26722 37958 ft 353 kts 244°
2026-05-04 19:11 37.74232 -111.32168 37965 ft 353 kts 244°
2026-05-04 19:12 37.70726 -111.40339 37998 ft 353 kts 244°
2026-05-04 19:13 37.68378 -111.45795 37992 ft 353 kts 244°
2026-05-04 19:13 37.66429 -111.50320 38000 ft 352 kts 244°
2026-05-04 19:14 37.64079 -111.55768 38010 ft 353 kts 244°
2026-05-04 19:14 37.61739 -111.61181 38012 ft 354 kts 244°
2026-05-04 19:15 37.59384 -111.66625 38018 ft 353 kts 244°
2026-05-04 19:15 37.56639 -111.72956 38023 ft 353 kts 244°
2026-05-04 19:16 37.54675 -111.77478 38024 ft 353 kts 244°
2026-05-04 19:16 37.52326 -111.82863 38030 ft 353 kts 243°
2026-05-04 19:17 37.49577 -111.88029 38023 ft 355 kts 238°
2026-05-04 19:17 37.46631 -111.93040 38033 ft 355 kts 238°
2026-05-04 19:18 37.43704 -111.98017 38035 ft 356 kts 238°
2026-05-04 19:18 37.40769 -112.03038 38032 ft 355 kts 238°
2026-05-04 19:19 37.37839 -112.08047 38018 ft 354 kts 238°
2026-05-04 19:19 37.34925 -112.13017 38027 ft 356 kts 238°
2026-05-04 19:20 37.32005 -112.17994 38024 ft 354 kts 238°
2026-05-04 19:20 37.29066 -112.23003 38029 ft 356 kts 238°
2026-05-04 19:21 37.26126 -112.28008 38018 ft 356 kts 238°
2026-05-04 19:21 37.23199 -112.32981 38018 ft 356 kts 238°
2026-05-04 19:22 37.20243 -112.37997 38013 ft 356 kts 238°
2026-05-04 19:22 37.17309 -112.42972 38002 ft 357 kts 238°
2026-05-04 19:23 37.14365 -112.47957 38001 ft 357 kts 238°
2026-05-04 19:23 37.11406 -112.52954 37999 ft 357 kts 238°
2026-05-04 19:24 37.08440 -112.57956 37998 ft 358 kts 238°
2026-05-04 19:24 37.05484 -112.62931 37999 ft 358 kts 237°
2026-05-04 19:25 37.02492 -112.67930 38010 ft 358 kts 237°
2026-05-04 19:25 36.99529 -112.72900 37996 ft 358 kts 237°
2026-05-04 19:26 36.96536 -112.77923 37992 ft 359 kts 238°
2026-05-04 19:26 36.93576 -112.82891 38000 ft 359 kts 237°
2026-05-04 19:27 36.90584 -112.87898 38000 ft 359 kts 237°
2026-05-04 19:27 36.87606 -112.92868 37998 ft 358 kts 237°
2026-05-04 19:28 36.84611 -112.97870 37999 ft 359 kts 237°
2026-05-04 19:28 36.81623 -113.02852 37999 ft 360 kts 237°
2026-05-04 19:29 36.78618 -113.07855 37988 ft 359 kts 237°
2026-05-04 19:29 36.75614 -113.12846 37980 ft 359 kts 237°
2026-05-04 19:30 36.72619 -113.17815 37972 ft 359 kts 237°
2026-05-04 19:30 36.69626 -113.22774 37957 ft 360 kts 237°
2026-05-04 19:31 36.66614 -113.27760 37960 ft 360 kts 237°
2026-05-04 19:31 36.63602 -113.32737 37952 ft 360 kts 237°
2026-05-04 19:32 36.60657 -113.37777 37955 ft 359 kts 238°
2026-05-04 19:32 36.57790 -113.42837 37942 ft 359 kts 238°
2026-05-04 19:33 36.54911 -113.47936 37944 ft 359 kts 238°
2026-05-04 19:33 36.52047 -113.53000 37940 ft 359 kts 238°
2026-05-04 19:34 36.49180 -113.58060 37918 ft 358 kts 238°
2026-05-04 19:34 36.46292 -113.63151 37909 ft 359 kts 238°
2026-05-04 19:35 36.43426 -113.68195 37917 ft 358 kts 238°
2026-05-04 19:35 36.40542 -113.73267 37926 ft 358 kts 238°
2026-05-04 19:36 36.37680 -113.78290 37928 ft 358 kts 238°
2026-05-04 19:36 36.34784 -113.83355 37928 ft 359 kts 238°
2026-05-04 19:37 36.31904 -113.88398 37914 ft 359 kts 238°
2026-05-04 19:37 36.29000 -113.93476 37906 ft 359 kts 238°
2026-05-04 19:38 36.26114 -113.98510 37907 ft 360 kts 238°
2026-05-04 19:38 36.23214 -114.03564 37904 ft 359 kts 238°
2026-05-04 19:39 36.20308 -114.08615 37896 ft 359 kts 238°
2026-05-04 19:39 36.17420 -114.13631 37891 ft 359 kts 238°
2026-05-04 19:40 36.14512 -114.18670 37895 ft 360 kts 238°
2026-05-04 19:40 36.11577 -114.23706 37892 ft 360 kts 237°
2026-05-04 19:41 36.08416 -114.28507 37888 ft 362 kts 233°
2026-05-04 19:41 36.05069 -114.33155 37890 ft 362 kts 233°
2026-05-04 19:42 36.01705 -114.37810 37887 ft 363 kts 233°
2026-05-04 19:42 35.98350 -114.42470 37888 ft 362 kts 233°
2026-05-04 19:43 35.95012 -114.47104 37887 ft 362 kts 233°
2026-05-04 19:43 35.91681 -114.51730 37894 ft 362 kts 233°
2026-05-04 19:44 35.88326 -114.56381 37895 ft 362 kts 233°
2026-05-04 19:44 35.84983 -114.61007 37889 ft 362 kts 233°
2026-05-04 19:45 35.81613 -114.65667 37886 ft 363 kts 233°
2026-05-04 19:45 35.78255 -114.70301 37884 ft 363 kts 232°
2026-05-04 19:46 35.74896 -114.74932 37886 ft 362 kts 232°
2026-05-04 19:46 35.71551 -114.79536 37885 ft 362 kts 232°
2026-05-04 19:47 35.68190 -114.84155 37889 ft 361 kts 232°
2026-05-04 19:47 35.64832 -114.88745 37898 ft 361 kts 232°
2026-05-04 19:48 35.61485 -114.93307 37907 ft 361 kts 232°
2026-05-04 19:48 35.58138 -114.97874 37906 ft 360 kts 232°
2026-05-04 19:49 35.54765 -115.02477 37908 ft 360 kts 232°
2026-05-04 19:49 35.51425 -115.07030 37906 ft 360 kts 232°
2026-05-04 19:50 35.47999 -115.11561 37906 ft 361 kts 231°
2026-05-04 19:50 35.44577 -115.16029 37913 ft 361 kts 231°
2026-05-04 19:51 35.41132 -115.20520 37915 ft 361 kts 231°
2026-05-04 19:51 35.37700 -115.25000 37915 ft 361 kts 231°
2026-05-04 19:52 35.34271 -115.29469 37914 ft 361 kts 231°
2026-05-04 19:52 35.30832 -115.33946 37915 ft 361 kts 231°
2026-05-04 19:53 35.27385 -115.38425 37922 ft 360 kts 231°
2026-05-04 19:53 35.23939 -115.42899 37935 ft 361 kts 231°
2026-05-04 19:54 35.20514 -115.47337 37942 ft 361 kts 231°
2026-05-04 19:54 35.17061 -115.51805 37941 ft 361 kts 231°
2026-05-04 19:55 35.13606 -115.56271 37947 ft 360 kts 231°
2026-05-04 19:55 35.10142 -115.60707 37954 ft 361 kts 230°
2026-05-04 19:56 35.06698 -115.65102 37965 ft 361 kts 230°
2026-05-04 19:56 35.03216 -115.69549 37967 ft 361 kts 230°
2026-05-04 19:57 34.99752 -115.73972 37964 ft 362 kts 230°
2026-05-04 19:57 34.96287 -115.78391 37969 ft 362 kts 230°
2026-05-04 19:58 34.92792 -115.82843 37961 ft 362 kts 230°
2026-05-04 19:58 34.89315 -115.87266 37966 ft 363 kts 230°
2026-05-04 19:59 34.85812 -115.91718 37980 ft 363 kts 230°
2026-05-04 19:59 34.82322 -115.96145 37980 ft 364 kts 230°
2026-05-04 20:00 34.78823 -116.00580 37670 ft 368 kts 230°
2026-05-04 20:00 34.77056 -116.02821 37385 ft 364 kts 230°
2026-05-04 20:00 34.75310 -116.05041 37068 ft 362 kts 230°
2026-05-04 20:00 34.73570 -116.07262 36772 ft 362 kts 229°
2026-05-04 20:01 34.71825 -116.09493 36469 ft 363 kts 229°
2026-05-04 20:01 34.70099 -116.11698 36168 ft 364 kts 230°
2026-05-04 20:01 34.68351 -116.13934 35866 ft 366 kts 230°
2026-05-04 20:01 34.66581 -116.16198 35571 ft 369 kts 230°
2026-05-04 20:02 34.65402 -116.17705 35371 ft 372 kts 230°
2026-05-04 20:02 34.63018 -116.20751 34978 ft 376 kts 229°
2026-05-04 20:02 34.61815 -116.22286 34777 ft 378 kts 229°
2026-05-04 20:02 34.59996 -116.24605 34478 ft 378 kts 229°
2026-05-04 20:03 34.57582 -116.27677 34078 ft 379 kts 229°
2026-05-04 20:03 34.56352 -116.29243 33880 ft 380 kts 229°
2026-05-04 20:03 34.54548 -116.31537 33584 ft 381 kts 229°
2026-05-04 20:03 34.52709 -116.33877 33284 ft 382 kts 229°
2026-05-04 20:04 34.50863 -116.36226 32976 ft 384 kts 229°
2026-05-04 20:04 34.49008 -116.38582 32677 ft 387 kts 229°
2026-05-04 20:04 34.47164 -116.40923 32380 ft 389 kts 229°
2026-05-04 20:04 34.45276 -116.43317 31759 ft 393 kts 228°
2026-05-04 20:05 34.43382 -116.45720 31131 ft 394 kts 228°
2026-05-04 20:05 34.41598 -116.48203 30439 ft 397 kts 233°
2026-05-04 20:05 34.40099 -116.51044 29736 ft 403 kts 239°
2026-05-04 20:05 34.38799 -116.54070 29037 ft 408 kts 242°
2026-05-04 20:06 34.37571 -116.57159 28345 ft 413 kts 242°
2026-05-04 20:06 34.36323 -116.60337 27640 ft 417 kts 243°
2026-05-04 20:06 34.35075 -116.63486 26941 ft 421 kts 242°
2026-05-04 20:06 34.33784 -116.66703 26239 ft 424 kts 242°
2026-05-04 20:07 34.32484 -116.69946 25532 ft 428 kts 243°
2026-05-04 20:07 34.31221 -116.73111 25128 ft 412 kts 243°
2026-05-04 20:07 34.29976 -116.76233 24779 ft 416 kts 243°
2026-05-04 20:07 34.28714 -116.79392 24383 ft 416 kts 243°
2026-05-04 20:08 34.27447 -116.82554 24005 ft 416 kts 243°
2026-05-04 20:08 34.26198 -116.85670 23632 ft 415 kts 243°
2026-05-04 20:08 34.24936 -116.88819 23245 ft 414 kts 243°
2026-05-04 20:08 34.23679 -116.91949 22874 ft 412 kts 243°
2026-05-04 20:09 34.22437 -116.95040 22415 ft 412 kts 243°
2026-05-04 20:09 34.21214 -116.98165 21913 ft 409 kts 245°
2026-05-04 20:09 34.20186 -117.01340 21420 ft 409 kts 248°
2026-05-04 20:09 34.19272 -117.04590 20915 ft 406 kts 250°
2026-05-04 20:10 34.18409 -117.07839 20417 ft 405 kts 250°
2026-05-04 20:10 34.17557 -117.11086 19916 ft 404 kts 250°
2026-05-04 20:10 34.16713 -117.14286 19418 ft 402 kts 250°
2026-05-04 20:10 34.15849 -117.17498 18918 ft 399 kts 250°
2026-05-04 20:11 34.14982 -117.20677 18414 ft 397 kts 250°
2026-05-04 20:11 34.14112 -117.23850 17907 ft 396 kts 250°
2026-05-04 20:11 34.13255 -117.26970 17418 ft 394 kts 250°
2026-05-04 20:11 34.12388 -117.30120 16910 ft 394 kts 250°
2026-05-04 20:12 34.11524 -117.33256 16409 ft 393 kts 250°
2026-05-04 20:12 34.10679 -117.36348 15913 ft 391 kts 251°
2026-05-04 20:12 34.09859 -117.39498 15414 ft 391 kts 251°
2026-05-04 20:12 34.09068 -117.42638 14908 ft 390 kts 252°
2026-05-04 20:13 34.08297 -117.45730 14409 ft 388 kts 252°
2026-05-04 20:13 34.07526 -117.48857 13913 ft 388 kts 253°
2026-05-04 20:13 34.06893 -117.52019 13410 ft 382 kts 256°
2026-05-04 20:13 34.06410 -117.55083 13019 ft 360 kts 258°
2026-05-04 20:14 34.06004 -117.57931 12655 ft 339 kts 258°
2026-05-04 20:14 34.05621 -117.60676 12285 ft 323 kts 258°
2026-05-04 20:14 34.05253 -117.63289 11909 ft 309 kts 258°
2026-05-04 20:14 34.04897 -117.65791 11521 ft 297 kts 258°
2026-05-04 20:15 34.04549 -117.68204 11146 ft 286 kts 258°
2026-05-04 20:15 34.04214 -117.70509 10771 ft 277 kts 259°
2026-05-04 20:15 34.03884 -117.72769 10395 ft 271 kts 259°
2026-05-04 20:15 34.03551 -117.75035 10018 ft 276 kts 259°
2026-05-04 20:16 34.03216 -117.77312 9643 ft 276 kts 259°
2026-05-04 20:16 34.02881 -117.79593 9268 ft 276 kts 259°
2026-05-04 20:16 34.02545 -117.81883 8885 ft 277 kts 259°
2026-05-04 20:16 34.02211 -117.84154 8519 ft 277 kts 259°
2026-05-04 20:17 34.01875 -117.86422 8146 ft 275 kts 259°
2026-05-04 20:17 34.01539 -117.88698 7760 ft 274 kts 259°
2026-05-04 20:17 34.01205 -117.90961 7392 ft 272 kts 259°
2026-05-04 20:17 34.00877 -117.93176 7024 ft 270 kts 259°
2026-05-04 20:18 34.00545 -117.95404 6646 ft 268 kts 259°
2026-05-04 20:18 34.00215 -117.97615 6266 ft 267 kts 259°
2026-05-04 20:18 33.99886 -117.99808 5892 ft 265 kts 259°
2026-05-04 20:18 33.99482 -118.01979 5519 ft 264 kts 256°
2026-05-04 20:19 33.99074 -118.04100 5145 ft 263 kts 258°
2026-05-04 20:19 33.98712 -118.06258 4768 ft 262 kts 259°
2026-05-04 20:19 33.98428 -118.08430 4391 ft 261 kts 262°
2026-05-04 20:19 33.98197 -118.10593 4073 ft 258 kts 263°
2026-05-04 20:20 33.97984 -118.12731 3988 ft 258 kts 263°
2026-05-04 20:20 33.97771 -118.14850 3988 ft 258 kts 263°
2026-05-04 20:20 33.97549 -118.17023 3809 ft 262 kts 263°
2026-05-04 20:20 33.97329 -118.19174 3471 ft 258 kts 263°
2026-05-04 20:21 33.97117 -118.21299 3136 ft 248 kts 263°
2026-05-04 20:21 33.96915 -118.23288 2815 ft 231 kts 264°
2026-05-04 20:21 33.96554 -118.26883 2255 ft 200 kts 263°
2026-05-04 20:22 33.96395 -118.28442 1990 ft 179 kts 263°
2026-05-04 20:22 33.96244 -118.29931 1775 ft 176 kts 263°
2026-05-04 20:22 33.96095 -118.31359 1542 ft 168 kts 263°
2026-05-04 20:22 33.95960 -118.32711 1318 ft 156 kts 263°
2026-05-04 20:23 33.95834 -118.33977 1114 ft 149 kts 263°
2026-05-04 20:23 33.95708 -118.35213 933 ft 149 kts 262°
2026-05-04 20:23 33.95591 -118.36441 749 ft 148 kts 262°
2026-05-04 20:23 33.95465 -118.37678 589 ft 150 kts 262°
2026-05-04 20:24 33.95339 -118.38926 359 ft 149 kts 262°
2026-05-04 20:24 33.95213 -118.40164 154 ft 149 kts 262°
2026-05-04 20:24 33.95094 -118.41297 102 ft 112 kts 264°
2026-05-04 20:24 33.95026 -118.41985 101 ft 55 kts 263°
2026-05-04 20:25 33.94949 -118.42347 103 ft 28 kts 238°
2026-05-04 20:25 33.94844 -118.42470 105 ft 19 kts 205°
2026-05-04 20:25 33.94694 -118.42466 105 ft 22 kts 149°
2026-05-04 20:25 33.94672 -118.42363 101 ft 9 kts 84°
2026-05-04 20:26 33.94684 -118.42208 103 ft 28 kts 83°
2026-05-04 20:26 33.94711 -118.41966 101 ft 29 kts 82°
2026-05-04 20:26 33.94736 -118.41731 101 ft 28 kts 83°
2026-05-04 20:26 33.94759 -118.41509 101 ft 26 kts 82°
2026-05-04 20:27 33.94789 -118.41307 102 ft 24 kts 81°
2026-05-04 20:27 33.94809 -118.41119 102 ft 22 kts 83°
2026-05-04 20:27 33.94826 -118.40953 104 ft 15 kts 84°
2026-05-04 20:27 33.94818 -118.40916 102 ft 2 kts 126°
2026-05-04 20:28 33.94772 -118.40901 102 ft 12 kts 177°
2026-05-04 20:28 33.94691 -118.40898 102 ft 11 kts 180°
2026-05-04 20:28 33.94638 -118.40885 99 ft 1 kts 139°
2026-05-04 20:28 33.94627 -118.40870 101 ft 6 kts 128°
2026-05-04 20:29 33.94609 -118.40827 100 ft 3 kts 114°
2026-05-04 20:29 33.94603 -118.40809 100 ft 0 kts 112°
2026-05-04 20:29 33.94599 -118.40798 99 ft 0 kts 112°